Location: Stonelick Lake State Park
(39.2170°N, 84.0850°W)
Time: 17:33:08
(UTC-04:00)

Amateur Radio Satellites - All Passes

Search period start: 22 July 2014 17:03
Search period end: 23 July 2014 17:03
Location: Stonelick Lake State Park, 39.2170°N, 84.0850°W

Satellite Date Start Highest point End Downlink Frequencies (MHz)
Time Altitude Azimuth
AO-7 22 Jul 17:03:21 17:11:44 87° 71° (ENE) 17:20:09 29.400 - 29.500 MHz
RS-15 22 Jul 17:10:22 17:20:49 45° 314° (NW) 17:31:12 29.354 - 29.394 USB, Beacon 29.352 USB
KITSAT 1 22 Jul 17:12:05 17:20:02 56° 55° (NE) 17:27:54 435.175 FM
UOSAT-12 22 Jul 17:25:54 17:30:27 64° 304° (NW) 17:35:07 437.025 FM, 437.400 FM
JAS-1B 22 Jul 17:29:45 17:35:28 20° 275° (W) 17:41:44 435.800 - 435.900 CW/SSB
Uosat F 22 Jul 17:33:26 17:38:16 46° 260° (W) 17:43:07 435.120 FM
OPAL 22 Jul 18:00:24 18:05:25 71° 288° (WNW) 18:10:28 ?
Hamsat 22 Jul 18:12:39 18:16:17 29° 71° (ENE) 18:19:55 145.90 MHz
JAS-2 22 Jul 18:20:16 18:27:34 44° 68° (ENE) 18:34:38 435.800 - 435.900 CW/SSB, 435.910 FM
Saudisat 1A 22 Jul 18:25:09 18:29:01 29° 50° (NE) 18:32:51 436.775 MHz
AO-7 22 Jul 19:00:10 19:05:25 18° 269° (W) 19:10:42 29.400 - 29.500 MHz
KITSAT 1 22 Jul 19:08:08 19:15:00 32° 253° (WSW) 19:21:50 435.175 FM
UOSAT-12 22 Jul 19:10:38 19:11:33 11° 323° (NW) 19:12:29 437.025 FM, 437.400 FM
RS-15 22 Jul 19:30:00 19:37:06 19° 346° (NNW) 19:44:13 29.354 - 29.394 USB, Beacon 29.352 USB
Oscar 10/S400 22 Jul 19:36:30 19:51:11 24° 142° (SE) 20:09:09 145.825 - 145.975 CW/USB, Beacon 145.810 USB
Hamsat 22 Jul 19:49:07 19:52:16 21° 266° (W) 19:55:26 145.90 MHz
HO-68 22 Jul 19:51:08 19:54:01 13° 52° (NE) 19:56:54 435.675 MHz FM
Saudisat 1A 22 Jul 20:04:44 20:08:32 29° 247° (WSW) 20:12:19 436.775 MHz
JAS-2 22 Jul 20:05:15 20:12:29 40° 264° (W) 20:19:36 435.800 - 435.900 CW/SSB, 435.910 FM
STRAND 1 22 Jul 20:11:56 20:16:59 58° 101° (E) 20:21:59 ?
SO-67 22 Jul 20:19:33 20:22:55 51° 260° (W) 20:26:20 435.3500 MHz FM
HO-68 22 Jul 21:33:19 21:40:25 69° 71° (ENE) 21:47:33 435.675 MHz FM
AO-40 22 Jul 21:43:46 04:47:22 39° 183° (S) 10:18:49 Beacon 2401.320
RS-15 22 Jul 21:47:18 21:55:19 22° 23° (NNE) 22:03:26 29.354 - 29.394 USB, Beacon 29.352 USB
STRAND 1 22 Jul 21:52:28 21:55:40 17° 297° (WNW) 21:58:52 ?
Oscar 11 22 Jul 22:23:46 22:28:01 63° 75° (ENE) 22:32:17 145.825 FM, Beacon 2401.500 USB
FUNcube-1 22 Jul 22:26:38 22:30:10 24° 69° (ENE) 22:33:39 145.950 - 145.970 MHz USB
MaSat-1 22 Jul 22:27:28 22:28:24 11° 97° (E) 22:29:22 437.345 MHz
SO-50 22 Jul 23:17:44 23:22:00 32° 50° (NE) 23:26:19 436.795 FM
HO-68 22 Jul 23:23:29 23:28:39 21° 267° (W) 23:33:50 435.675 MHz FM
RS-15 22 Jul 23:59:40 00:10:35 61° 52° (NE) 00:21:51 29.354 - 29.394 USB, Beacon 29.352 USB
MaSat-1 23 Jul 00:01:10 00:04:55 55° 298° (WNW) 00:09:22 437.345 MHz
FUNcube-1 23 Jul 00:02:38 00:06:27 28° 264° (W) 00:10:12 145.950 - 145.970 MHz USB
Oscar 11 23 Jul 00:03:58 00:04:36 10° 270° (W) 00:05:13 145.825 FM, Beacon 2401.500 USB
UOSAT-12 23 Jul 00:18:13 00:20:20 13° 39° (NE) 00:22:27 437.025 FM, 437.400 FM
SO-50 23 Jul 00:58:21 01:02:30 30° 247° (WSW) 01:06:41 436.795 FM
Lituanica SAT-1 23 Jul 01:29:13 01:31:22 69° 324° (NW) 01:33:32 437.275 MHz beacon
UOSAT-12 23 Jul 01:56:31 02:01:16 81° 58° (ENE) 02:05:56 437.025 FM, 437.400 FM
Sapphire 23 Jul 02:03:55 02:07:58 22° 106° (ESE) 02:12:02 437.095 MHz 1200 baud AX-25 AFSK
ISS 23 Jul 02:08:33 02:11:32 31° 134° (SE) 02:14:32 145.800 FM
RS-15 23 Jul 02:12:37 02:22:25 38° 253° (WSW) 02:32:35 29.354 - 29.394 USB, Beacon 29.352 USB
PCSat 23 Jul 02:36:42 02:41:51 47° 112° (ESE) 02:47:02 145.825 MHz
Oscar 19 23 Jul 02:41:49 02:46:36 37° 98° (E) 02:51:22 437.125 CW, 437.150 USB
Oscar 16 23 Jul 03:08:45 03:13:54 72° 102° (ESE) 03:19:03 437.025 USB, Beacon 2401.1428
ITAMSAT 1 23 Jul 03:15:52 03:20:38 36° 98° (E) 03:25:20 435.822 SSB
Gurwin Techsat 1B 23 Jul 03:19:07 03:22:13 16° 91° (E) 03:25:18 435.225 FM
JAS-1B 23 Jul 03:23:43 03:32:13 35° 92° (E) 03:39:45 435.800 - 435.900 CW/SSB
AO-27 23 Jul 03:33:03 03:38:09 54° 100° (E) 03:43:11 436.795 MHz FM
Uribyol 2 23 Jul 03:36:49 03:41:57 61° 101° (ESE) 03:47:02 436.500 FM
OPAL 23 Jul 03:37:16 03:40:58 22° 63° (ENE) 03:44:40 ?
UOSAT-12 23 Jul 03:39:50 03:40:42 10° 254° (WSW) 03:41:34 437.025 FM, 437.400 FM
ISS 23 Jul 03:45:14 03:48:15 30° 331° (NNW) 03:51:17 145.800 FM
Sapphire 23 Jul 03:45:48 03:51:01 49° 303° (WNW) 03:56:16 437.095 MHz 1200 baud AX-25 AFSK
AO-Echo 23 Jul 03:50:55 03:56:07 84° 103° (ESE) 04:01:06 ?
PCSat 23 Jul 04:21:03 04:25:29 25° 310° (NW) 04:29:57 145.825 MHz
Oscar 19 23 Jul 04:21:34 04:25:44 25° 294° (WNW) 04:29:54 437.125 CW, 437.150 USB
TMSAT-1 23 Jul 04:37:15 04:42:31 64° 101° (ESE) 04:47:45 436.925 FM
Oscar 16 23 Jul 04:50:03 04:52:38 14° 299° (WNW) 04:55:13 437.025 USB, Beacon 2401.1428
ITAMSAT 1 23 Jul 04:55:40 04:59:57 27° 294° (WNW) 05:04:12 435.822 SSB
Gurwin Techsat 1B 23 Jul 04:57:20 05:02:35 61° 287° (WNW) 05:07:47 435.225 FM
AO-7 23 Jul 05:06:55 05:14:06 31° 97° (E) 05:21:12 29.400 - 29.500 MHz
JAS-1B 23 Jul 05:13:38 05:23:02 57° 293° (WNW) 05:31:19 435.800 - 435.900 CW/SSB
AO-27 23 Jul 05:13:43 05:17:13 19° 297° (WNW) 05:20:42 436.795 MHz FM
OPAL 23 Jul 05:14:52 05:19:33 43° 259° (W) 05:24:16 ?
Uribyol 2 23 Jul 05:17:46 05:20:54 16° 298° (WNW) 05:24:01 436.500 FM
ISS 23 Jul 05:24:40 05:25:50 11° 350° (N) 05:27:00 145.800 FM
AO-Echo 23 Jul 05:32:13 05:34:04 12° 300° (WNW) 05:35:55 ?
Uosat F 23 Jul 05:42:02 05:47:00 59° 101° (ESE) 05:51:56 435.120 FM
TMSAT-1 23 Jul 06:18:41 06:21:52 16° 298° (WNW) 06:25:04 436.925 FM
AO-7 23 Jul 06:59:06 07:07:11 56° 294° (WNW) 07:15:12 29.400 - 29.500 MHz
ISS 23 Jul 07:02:29 07:03:48 12° 11° (N) 07:05:06 145.800 FM
JAS-1B 23 Jul 07:07:01 07:11:15 14° 314° (NW) 07:15:21 435.800 - 435.900 CW/SSB
JAS-2 23 Jul 07:17:21 07:22:56 34° 94° (E) 07:27:56 435.800 - 435.900 CW/SSB, 435.910 FM
Uosat F 23 Jul 07:22:15 07:25:16 16° 298° (WNW) 07:28:17 435.120 FM
STRAND 1 23 Jul 07:26:42 07:31:50 76° 74° (ENE) 07:36:59 ?
Hamsat 23 Jul 07:34:31 07:38:48 73° 101° (ESE) 07:43:06 145.90 MHz
KITSAT 1 23 Jul 07:39:08 07:46:40 44° 110° (ESE) 07:54:12 435.175 FM
Lituanica SAT-1 23 Jul 07:43:42 07:45:53 57° 35° (NE) 07:48:03 437.275 MHz beacon
SO-67 23 Jul 07:46:28 07:47:35 11° 92° (E) 07:48:43 435.3500 MHz FM
MaSat-1 23 Jul 08:20:25 08:25:09 31° 56° (NE) 08:29:45 437.345 MHz
PANSAT 23 Jul 08:21:18 08:21:48 10° 164° (SSE) 08:22:18 not established
Oscar 10/S400 23 Jul 08:37:35 09:42:56 20° 259° (W) 11:50:09 145.825 - 145.975 CW/USB, Beacon 145.810 USB
ISS 23 Jul 08:38:14 08:41:20 33° 30° (NNE) 08:44:25 145.800 FM
AO-7 23 Jul 08:55:22 08:58:08 12° 315° (NW) 09:00:54 29.400 - 29.500 MHz
JAS-2 23 Jul 09:02:26 09:07:56 33° 295° (WNW) 09:12:54 435.800 - 435.900 CW/SSB, 435.910 FM
HO-68 23 Jul 09:05:51 09:08:07 12° 88° (E) 09:10:23 435.675 MHz FM
STRAND 1 23 Jul 09:09:44 09:11:32 12° 270° (W) 09:13:21 ?
SO-67 23 Jul 09:17:36 09:20:49 36° 286° (WNW) 09:24:01 435.3500 MHz FM
KITSAT 1 23 Jul 09:34:26 09:42:03 43° 309° (NW) 09:49:42 435.175 FM
MaSat-1 23 Jul 09:57:44 10:02:33 35° 254° (WSW) 10:07:09 437.345 MHz
PANSAT 23 Jul 09:58:50 10:01:17 16° 177° (S) 10:03:44 not established
Saudisat 1A 23 Jul 10:09:24 10:13:50 88° 301° (WNW) 10:18:17 436.775 MHz
Oscar 11 23 Jul 10:14:28 10:16:16 12° 91° (E) 10:18:05 145.825 FM, Beacon 2401.500 USB
ISS 23 Jul 10:15:06 10:18:00 27° 227° (SW) 10:20:53 145.800 FM
HO-68 23 Jul 10:49:39 10:56:50 78° 105° (ESE) 11:03:58 435.675 MHz FM
Sapphire 23 Jul 10:52:28 10:56:00 17° 45° (NE) 10:59:32 437.095 MHz 1200 baud AX-25 AFSK
PCSat 23 Jul 11:25:46 11:30:37 32° 53° (NE) 11:35:25 145.825 MHz
KITSAT 1 23 Jul 11:36:28 11:39:58 13° 335° (NNW) 11:43:28 435.175 FM
PANSAT 23 Jul 11:38:48 11:40:48 14° 190° (S) 11:42:48 not established
Oscar 11 23 Jul 11:48:33 11:52:46 53° 286° (WNW) 11:56:59 145.825 FM, Beacon 2401.500 USB
Saudisat 1A 23 Jul 11:52:12 11:54:04 12° 320° (NW) 11:55:57 436.775 MHz
FUNcube-1 23 Jul 11:52:12 11:56:18 57° 100° (E) 12:00:24 145.950 - 145.970 MHz USB
Sapphire 23 Jul 12:34:37 12:40:03 78° 244° (WSW) 12:45:27 437.095 MHz 1200 baud AX-25 AFSK
HO-68 23 Jul 12:38:50 12:43:44 20° 303° (WNW) 12:48:38 435.675 MHz FM
Oscar 16 23 Jul 12:49:40 12:51:13 11° 60° (ENE) 12:52:47 437.025 USB, Beacon 2401.1428
PCSat 23 Jul 13:09:07 13:14:02 36° 250° (WSW) 13:18:55 145.825 MHz
Uribyol 2 23 Jul 13:19:26 13:20:10 10° 58° (ENE) 13:20:54 436.500 FM
AO-Echo 23 Jul 13:27:22 13:29:28 12° 60° (ENE) 13:31:35 ?
FUNcube-1 23 Jul 13:30:45 13:32:13 12° 296° (WNW) 13:33:41 145.950 - 145.970 MHz USB
SO-50 23 Jul 13:34:56 13:36:18 11° 107° (ESE) 13:37:41 436.795 FM
Oscar 19 23 Jul 13:57:40 14:02:34 48° 72° (ENE) 14:07:29 437.125 CW, 437.150 USB
JAS-1B 23 Jul 14:06:14 14:13:19 29° 57° (ENE) 14:21:03 435.800 - 435.900 CW/SSB
TMSAT-1 23 Jul 14:21:34 14:23:07 11° 59° (ENE) 14:24:41 436.925 FM
RS-15 23 Jul 14:22:26 14:32:32 41° 108° (ESE) 14:42:24 29.354 - 29.394 USB, Beacon 29.352 USB
Oscar 16 23 Jul 14:24:41 14:29:48 88° 256° (WSW) 14:34:58 437.025 USB, Beacon 2401.1428
ITAMSAT 1 23 Jul 14:32:44 14:37:45 49° 71° (ENE) 14:42:46 435.822 SSB
Gurwin Techsat 1B 23 Jul 14:38:56 14:43:03 23° 65° (ENE) 14:47:10 435.225 FM
AO-27 23 Jul 14:50:03 14:55:16 74° 74° (ENE) 15:00:29 436.795 MHz FM
Uribyol 2 23 Jul 14:53:35 14:58:47 83° 75° (ENE) 15:04:01 436.500 FM
AO-Echo 23 Jul 15:02:11 15:07:26 87° 257° (WSW) 15:12:48 ?
SO-50 23 Jul 15:11:46 15:16:13 70° 303° (WNW) 15:20:45 436.795 FM
KITSAT 1 23 Jul 15:33:37 15:39:30 21° 37° (NE) 15:45:20 435.175 FM
Oscar 19 23 Jul 15:38:39 15:42:09 19° 267° (W) 15:45:41 437.125 CW, 437.150 USB
JAS-1B 23 Jul 15:54:28 16:02:47 73° 258° (WSW) 16:12:27 435.800 - 435.900 CW/SSB
TMSAT-1 23 Jul 15:56:55 16:02:13 88° 76° (ENE) 16:07:33 436.925 FM
AO-7 23 Jul 16:04:38 16:12:13 40° 62° (ENE) 16:19:49 29.400 - 29.500 MHz
UOSAT-12 23 Jul 16:07:06 16:11:06 30° 113° (ESE) 16:15:11 437.025 FM, 437.400 FM
ITAMSAT 1 23 Jul 16:13:50 16:17:29 19° 267° (W) 16:21:09 435.822 SSB
Gurwin Techsat 1B 23 Jul 16:17:41 16:22:43 43° 261° (W) 16:27:47 435.225 FM
AO-27 23 Jul 16:33:11 16:35:17 12° 270° (W) 16:37:23 436.795 MHz FM
RS-15 23 Jul 16:33:38 16:44:29 56° 309° (NW) 16:55:13 29.354 - 29.394 USB, Beacon 29.352 USB
Uribyol 2 23 Jul 16:37:47 16:38:51 11° 271° (W) 16:39:55 436.500 FM
SO-50 23 Jul 16:56:40 16:57:39 11° 323° (NW) 16:58:38 436.795 FM
